Location: Peterborough
(44.3091°N, 78.3197°W)
Time: 23:41:33
(UTC-05:00)

Vanguard 1 Rocket - Pass Details

Date: 14 December 2023
Orbit: 654 x 4218 km, 34.3° (Epoch: 24 February)

Event Time Altitude Azimuth Distance (km) Brightness Sun altitude
Exits shadow 05:39:08 18° 257° (WSW) 6,518 11.2 -20.9°
Maximum altitude 05:58:04 60° 188° (S) 3,334 10.2 -17.6°
Drops below altitude 10° 06:11:10 10° 113° (ESE) 4,431 12.3 -15.4°
Sets 06:13:54 0° 109° (ESE) 5,076 13.2 -14.9°
